When you browse on this site, cookies collect data to enhance your experience and personalize the content and advertising you see.
Visit our Privacy Policy to learn more. By continuing to use the site, you agree to this use of cookies and data.
  • In Latvia
  • List of Countries
  • For 7 days
  • Water Temperature
  • Weather Map
  • Weather Widgets
  • user-avatar
    Login

    Hourly Weather Shusha

    Today, 19 August, Monday

    Time Temperature Precipitation Wind Pressure Humidity
    00:00 +21°C° 0 mm 1 mps 659 mmHg 41%
    01:00 +20°C° 0 mm 1 mps 659 mmHg 41%
    02:00 +20°C° 0 mm 1 mps 659 mmHg 41%
    03:00 +20°C° 0 mm 1 mps 659 mmHg 43%
    04:00 +20°C° 0 mm 1 mps 660 mmHg 43%
    05:00 +20°C° 0 mm 1 mps 660 mmHg 42%
    06:00 +21°C° 0 mm 1 mps 661 mmHg 42%
    07:00 +23°C° 0 mm 1 mps 661 mmHg 35%
    08:00 +25°C° 0 mm 1 mps 662 mmHg 29%
    09:00 +28°C° 0 mm 2 mps 663 mmHg 23%
    10:00 +29°C° 0 mm 2 mps 663 mmHg 21%
    11:00 +30°C° 0 mm 3 mps 663 mmHg 19%
    12:00 +31°C° 0 mm 3 mps 663 mmHg 17%
    13:00 +31°C° 0 mm 3 mps 663 mmHg 17%
    14:00 +31°C° 0 mm 3 mps 663 mmHg 18%
    15:00 +33°C° 0 mm 4 mps 663 mmHg 18%
    16:00 +30°C° 0 mm 3 mps 663 mmHg 21%
    17:00 +29°C° 0 mm 2 mps 663 mmHg 24%
    18:00 +28°C° 0 mm 2 mps 662 mmHg 27%
    19:00 +26°C° 0 mm 2 mps 663 mmHg 30%
    20:00 +24°C° 0 mm 1 mps 663 mmHg 33%
    21:00 +22°C° 0 mm 1 mps 663 mmHg 36%
    22:00 +22°C° 0 mm 1 mps 663 mmHg 36%
    23:00 +21°C° 0 mm 1 mps 662 mmHg 36%

    Tomorrow, 20 August, Tuesday

    Time Temperature Precipitation Wind Pressure Humidity
    00:00 +20°C° 0 mm 2 mps 662 mmHg 36%
    01:00 +21°C° 0 mm 1 mps 663 mmHg 36%
    02:00 +20°C° 0 mm 1 mps 663 mmHg 36%
    03:00 +20°C° 0 mm 1 mps 663 mmHg 36%
    04:00 +20°C° 0 mm 1 mps 663 mmHg 35%
    05:00 +20°C° 0 mm 1 mps 663 mmHg 35%
    06:00 +20°C° 0 mm 1 mps 663 mmHg 35%
    07:00 +23°C° 0 mm 1 mps 664 mmHg 29%
    08:00 +25°C° 0 mm 1 mps 665 mmHg 24%
    09:00 +28°C° 0 mm 2 mps 665 mmHg 18%
    10:00 +29°C° 0 mm 2 mps 665 mmHg 16%
    11:00 +30°C° 0 mm 3 mps 665 mmHg 14%
    12:00 +31°C° 0 mm 3 mps 665 mmHg 13%
    13:00 +33°C° 0 mm 3 mps 665 mmHg 13%
    14:00 +33°C° 0 mm 3 mps 665 mmHg 13%
    15:00 +33°C° 0 mm 4 mps 664 mmHg 13%
    16:00 +31°C° 0 mm 3 mps 664 mmHg 16%
    17:00 +29°C° 0 mm 3 mps 663 mmHg 19%
    18:00 +28°C° 0 mm 2 mps 663 mmHg 22%
    19:00 +26°C° 0 mm 2 mps 663 mmHg 24%
    20:00 +24°C° 0 mm 2 mps 663 mmHg 26%
    21:00 +21°C° 0 mm 2 mps 662 mmHg 28%
    22:00 +21°C° 0 mm 2 mps 662 mmHg 28%
    23:00 +20°C° 0 mm 2 mps 662 mmHg 28%

    Day after tomorrow, 21 August, Wednesday

    Time Temperature Precipitation Wind Pressure Humidity
    00:00 +20°C° 0 mm 2 mps 662 mmHg 28%
    01:00 +20°C° 0 mm 2 mps 662 mmHg 28%
    02:00 +19°C° 0 mm 2 mps 662 mmHg 29%
    03:00 +20°C° 0 mm 1 mps 662 mmHg 29%
    04:00 +20°C° 0 mm 1 mps 662 mmHg 30%
    05:00 +20°C° 0 mm 1 mps 662 mmHg 30%
    06:00 +20°C° 0 mm 1 mps 662 mmHg 31%
    07:00 +23°C° 0 mm 1 mps 663 mmHg 27%
    08:00 +25°C° 0 mm 1 mps 663 mmHg 23%
    09:00 +28°C° 0 mm 2 mps 664 mmHg 18%
    10:00 +29°C° 0 mm 2 mps 664 mmHg 17%
    11:00 +30°C° 0 mm 2 mps 664 mmHg 15%
    12:00 +31°C° 0 mm 3 mps 664 mmHg 13%
    13:00 +31°C° 0 mm 3 mps 663 mmHg 13%
    14:00 +33°C° 0 mm 3 mps 663 mmHg 13%
    15:00 +33°C° 0 mm 3 mps 662 mmHg 13%
    16:00 +31°C° 0 mm 3 mps 662 mmHg 16%
    17:00 +29°C° 0 mm 2 mps 661 mmHg 19%
    18:00 +28°C° 0 mm 2 mps 661 mmHg 21%
    19:00 +26°C° 0 mm 2 mps 661 mmHg 23%
    20:00 +24°C° 0 mm 2 mps 660 mmHg 24%
    21:00 +21°C° 0 mm 2 mps 660 mmHg 26%
    22:00 +21°C° 0 mm 2 mps 660 mmHg 26%
    23:00 +21°C° 0 mm 2 mps 660 mmHg 27%

    22 August, Thursday

    Time Temperature Precipitation Wind Pressure Humidity
    00:00 +20°C° 0 mm 2 mps 660 mmHg 27%
    01:00 +20°C° 0 mm 2 mps 660 mmHg 27%
    02:00 +19°C° 0 mm 2 mps 660 mmHg 27%
    03:00 +19°C° 0 mm 2 mps 660 mmHg 28%
    04:00 +20°C° 0 mm 1 mps 660 mmHg 29%
    05:00 +20°C° 0 mm 1 mps 660 mmHg 30%
    06:00 +20°C° 0 mm 1 mps 660 mmHg 31%
    07:00 +23°C° 0 mm 1 mps 661 mmHg 27%
    08:00 +25°C° 0 mm 2 mps 661 mmHg 23%
    09:00 +27°C° 0 mm 2 mps 662 mmHg 20%
    10:00 +28°C° 0 mm 2 mps 661 mmHg 19%
    11:00 +30°C° 0 mm 3 mps 661 mmHg 17%
    12:00 +31°C° 0 mm 3 mps 661 mmHg 16%
    13:00 +31°C° 0 mm 3 mps 660 mmHg 16%
    14:00 +31°C° 0 mm 3 mps 660 mmHg 16%
    15:00 +31°C° 0 mm 3 mps 660 mmHg 16%
    16:00 +30°C° 0 mm 3 mps 659 mmHg 18%
    17:00 +29°C° 0 mm 3 mps 659 mmHg 20%
    18:00 +27°C° 0 mm 3 mps 658 mmHg 22%
    19:00 +25°C° 0 mm 2 mps 658 mmHg 24%
    20:00 +23°C° 0 mm 2 mps 658 mmHg 26%
    21:00 +21°C° 0 mm 1 mps 658 mmHg 28%
    22:00 +20°C° 0 mm 2 mps 658 mmHg 28%
    23:00 +20°C° 0 mm 2 mps 658 mmHg 29%

    23 August, Friday

    Time Temperature Precipitation Wind Pressure Humidity
    00:00 +19°C° 0 mm 2 mps 658 mmHg 29%
    01:00 +19°C° 0 mm 2 mps 658 mmHg 31%
    02:00 +19°C° 0 mm 2 mps 658 mmHg 33%
    03:00 +18°C° 0 mm 2 mps 658 mmHg 34%
    04:00 +18°C° 0 mm 2 mps 658 mmHg 35%
    05:00 +18°C° 0 mm 2 mps 659 mmHg 36%
    06:00 +18°C° 0 mm 2 mps 659 mmHg 37%
    07:00 +21°C° 0 mm 2 mps 659 mmHg 34%
    08:00 +24°C° 0 mm 2 mps 660 mmHg 30%
    09:00 +26°C° 0 mm 2 mps 661 mmHg 27%
    10:00 +28°C° 0 mm 2 mps 661 mmHg 25%
    11:00 +29°C° 0 mm 3 mps 661 mmHg 24%
    12:00 +30°C° 0 mm 3 mps 661 mmHg 23%
    13:00 +30°C° 0 mm 3 mps 660 mmHg 22%
    14:00 +32°C° 0 mm 4 mps 660 mmHg 22%
    15:00 +32°C° 0 mm 4 mps 660 mmHg 22%
    16:00 +30°C° 0 mm 3 mps 660 mmHg 25%
    17:00 +29°C° 0 mm 3 mps 660 mmHg 27%
    18:00 +28°C° 0 mm 2 mps 659 mmHg 30%
    19:00 +26°C° 0 mm 2 mps 659 mmHg 32%
    20:00 +24°C° 0 mm 2 mps 659 mmHg 34%
    21:00 +22°C° 0 mm 1 mps 659 mmHg 36%
    22:00 +22°C° 0 mm 1 mps 659 mmHg 37%
    23:00 +20°C° 0 mm 2 mps 659 mmHg 37%

    24 August, Saturday

    Time Temperature Precipitation Wind Pressure Humidity
    00:00 +20°C° 0 mm 2 mps 659 mmHg 38%
    01:00 +19°C° 0 mm 2 mps 659 mmHg 38%
    02:00 +19°C° 0 mm 2 mps 659 mmHg 39%
    03:00 +19°C° 0 mm 2 mps 659 mmHg 39%
    04:00 +19°C° 0 mm 2 mps 659 mmHg 40%
    05:00 +19°C° 0 mm 2 mps 659 mmHg 41%
    06:00 +19°C° 0 mm 2 mps 659 mmHg 41%
    07:00 +21°C° 0 mm 2 mps 660 mmHg 38%
    08:00 +25°C° 0 mm 2 mps 661 mmHg 34%
    09:00 +27°C° 0 mm 2 mps 661 mmHg 30%
    10:00 +28°C° 0 mm 2 mps 661 mmHg 29%
    11:00 +29°C° 0 mm 3 mps 661 mmHg 28%
    12:00 +30°C° 0 mm 3 mps 661 mmHg 26%
    13:00 +31°C° 0 mm 3 mps 661 mmHg 26%
    14:00 +31°C° 0 mm 3 mps 661 mmHg 26%
    15:00 +31°C° 0 mm 3 mps 660 mmHg 26%
    16:00 +30°C° 0 mm 3 mps 660 mmHg 29%
    17:00 +29°C° 0 mm 3 mps 660 mmHg 31%
    18:00 +28°C° 0 mm 2 mps 660 mmHg 33%
    19:00 +26°C° 0 mm 2 mps 660 mmHg 35%
    20:00 +24°C° 0 mm 2 mps 660 mmHg 38%
    21:00 +22°C° 0 mm 1 mps 660 mmHg 40%
    22:00 +22°C° 0 mm 1 mps 660 mmHg 39%
    23:00 +21°C° 0 mm 1 mps 660 mmHg 39%
    Show more